Time,TemperatureF,DewpointF,PressureIn,WindDirection,WindDirectionDegrees,WindSpeedMPH,WindSpeedGustMPH,Humidity,HourlyPrecipIn,Conditions,Clouds,dailyrainin,SoftwareType,DateUTC
2013-02-27 00:02:00,38.0,31.0,30.16,SE,132,1.0,-999.0,76,-99.99,,,-99.99,,2013-02-27 05:02:00,
2013-02-27 00:12:00,38.0,31.0,30.16,SE,132,1.0,-999.0,76,-99.99,,,-99.99,,2013-02-27 05:12:00,
2013-02-27 00:22:00,38.0,31.0,30.17,South,182,0.0,-999.0,77,-99.99,,,-99.99,,2013-02-27 05:22:00,
2013-02-27 00:32:00,38.0,32.0,30.16,SSW,193,2.0,-999.0,79,-99.99,,,-99.99,,2013-02-27 05:32:00,
2013-02-27 00:42:00,38.0,32.0,30.16,SSW,193,2.0,-999.0,79,-99.99,,,-99.99,,2013-02-27 05:42:00,
2013-02-27 00:52:00,38.0,32.0,30.15,SSE,161,2.0,-999.0,80,-99.99,,,-99.99,,2013-02-27 05:52:00,
2013-02-27 01:02:00,38.0,32.0,30.15,SSE,161,2.0,-999.0,80,-99.99,,,-99.99,,2013-02-27 06:02:00,
2013-02-27 01:11:00,38.0,32.0,30.15,SSE,161,2.0,-999.0,80,-99.99,,,-99.99,,2013-02-27 06:11:00,
2013-02-27 01:21:00,38.0,33.0,30.14,SE,133,0.0,-999.0,82,-99.99,,,-99.99,,2013-02-27 06:21:00,
2013-02-27 01:33:00,39.0,34.0,30.13,South,169,1.0,-999.0,83,-99.99,,,-99.99,,2013-02-27 06:33:00,
2013-02-27 01:42:00,39.0,34.0,30.13,South,169,1.0,-999.0,83,-99.99,,,-99.99,,2013-02-27 06:42:00,
2013-02-27 01:52:00,39.0,35.0,30.13,ESE,117,3.0,-999.0,84,-99.99,,,-99.99,,2013-02-27 06:52:00,
2013-02-27 02:01:00,39.0,35.0,30.11,ENE,60,3.0,-999.0,84,-99.99,,,-99.99,,2013-02-27 07:01:00,
2013-02-27 02:12:00,39.0,35.0,30.11,ENE,60,3.0,-999.0,84,-99.99,,,-99.99,,2013-02-27 07:12:00,
2013-02-27 02:21:00,39.0,35.0,30.11,SE,136,0.0,-999.0,84,-99.99,,,-99.99,,2013-02-27 07:21:00,
2013-02-27 02:32:00,39.0,35.0,30.09,ESE,122,4.0,-999.0,84,-99.99,,,-99.99,,2013-02-27 07:32:00,
2013-02-27 02:42:00,39.0,35.0,30.09,ESE,122,4.0,-999.0,84,-99.99,,,-99.99,,2013-02-27 07:42:00,
2013-02-27 02:51:00,39.0,35.0,30.09,East,89,2.0,-999.0,85,-99.99,,,-99.99,,2013-02-27 07:51:00,
2013-02-27 03:01:00,39.0,35.0,30.09,SSE,156,1.0,-999.0,85,-99.99,,,-99.99,,2013-02-27 08:01:00,
2013-02-27 03:11:00,39.0,35.0,30.09,SSE,156,1.0,-999.0,85,-99.99,,,-99.99,,2013-02-27 08:11:00,
2013-02-27 03:21:00,39.0,35.0,30.09,ESE,115,0.0,-999.0,85,-99.99,,,-99.99,,2013-02-27 08:21:00,
2013-02-27 03:32:00,39.0,35.0,30.07,East,88,0.0,-999.0,84,-99.99,,,-99.99,,2013-02-27 08:32:00,
2013-02-27 03:42:00,39.0,35.0,30.07,East,88,0.0,-999.0,84,-99.99,,,-99.99,,2013-02-27 08:42:00,
2013-02-27 03:52:00,39.0,34.0,30.08,South,191,0.0,-999.0,83,-99.99,,,-99.99,,2013-02-27 08:52:00,
2013-02-27 04:02:00,39.0,35.0,30.08,ENE,61,2.0,-999.0,87,-99.99,,,-99.99,,2013-02-27 09:02:00,
2013-02-27 04:12:00,39.0,35.0,30.08,ENE,61,2.0,-999.0,87,-99.99,,,-99.99,,2013-02-27 09:12:00,
2013-02-27 04:22:00,39.0,36.0,30.07,South,185,0.0,-999.0,88,-99.99,,,-99.99,,2013-02-27 09:22:00,
2013-02-27 04:32:00,39.0,37.0,30.07,NE,38,0.0,-999.0,91,-99.99,,,-99.99,,2013-02-27 09:32:00,
2013-02-27 04:41:00,39.0,37.0,30.07,NE,38,0.0,-999.0,91,-99.99,,,-99.99,,2013-02-27 09:41:00,
2013-02-27 04:51:00,39.0,37.0,30.07,NE,45,1.0,-999.0,91,-99.99,,,-99.99,,2013-02-27 09:51:00,
2013-02-27 05:01:00,39.0,37.0,30.06,NE,56,1.0,-999.0,92,-99.99,,,-99.99,,2013-02-27 10:01:00,
2013-02-27 05:12:00,39.0,37.0,30.06,NE,56,1.0,-999.0,92,-99.99,,,-99.99,,2013-02-27 10:12:00,
2013-02-27 05:22:00,39.0,37.0,30.05,East,86,1.0,-999.0,93,-99.99,,,-99.99,,2013-02-27 10:22:00,
2013-02-27 05:32:00,39.0,37.0,30.04,South,178,1.0,-999.0,94,-99.99,,,-99.99,,2013-02-27 10:32:00,
2013-02-27 05:42:00,39.0,37.0,30.04,South,178,1.0,-999.0,94,-99.99,,,-99.99,,2013-02-27 10:42:00,
2013-02-27 05:52:00,40.0,38.0,30.03,South,169,2.0,-999.0,94,-99.99,,,-99.99,,2013-02-27 10:52:00,
2013-02-27 06:02:00,40.0,38.0,30.02,ENE,67,1.0,-999.0,94,-99.99,,,-99.99,,2013-02-27 11:02:00,
2013-02-27 06:12:00,40.0,38.0,30.02,ENE,67,1.0,-999.0,94,-99.99,,,-99.99,,2013-02-27 11:12:00,
2013-02-27 06:22:00,40.0,38.0,30.01,ESE,113,2.0,-999.0,94,-99.99,,,-99.99,,2013-02-27 11:22:00,
2013-02-27 06:32:00,40.0,38.0,30.00,NE,54,0.0,-999.0,94,-99.99,,,-99.99,,2013-02-27 11:32:00,
2013-02-27 06:42:00,40.0,38.0,30.00,NE,54,0.0,-999.0,94,-99.99,,,-99.99,,2013-02-27 11:42:00,
2013-02-27 06:52:00,40.0,38.0,30.00,SSE,152,3.0,-999.0,94,-99.99,,,-99.99,,2013-02-27 11:52:00,
2013-02-27 07:02:00,40.0,38.0,29.99,ESE,111,2.0,-999.0,94,-99.99,,,-99.99,,2013-02-27 12:02:00,
2013-02-27 07:13:00,40.0,38.0,29.99,ESE,111,2.0,-999.0,94,-99.99,,,-99.99,,2013-02-27 12:13:00,
2013-02-27 07:22:00,40.0,38.0,29.98,East,96,1.0,-999.0,94,-99.99,,,-99.99,,2013-02-27 12:22:00,
2013-02-27 07:33:00,40.0,38.0,29.97,East,98,0.0,-999.0,94,-99.99,,,-99.99,,2013-02-27 12:33:00,
2013-02-27 07:42:00,40.0,38.0,29.97,East,98,0.0,-999.0,94,-99.99,,,-99.99,,2013-02-27 12:42:00,
2013-02-27 07:52:00,40.0,38.0,29.97,ENE,78,2.0,-999.0,94,-99.99,,,-99.99,,2013-02-27 12:52:00,
2013-02-27 08:02:00,40.0,38.0,29.96,ENE,72,1.0,-999.0,93,-99.99,,,-99.99,,2013-02-27 13:02:00,
2013-02-27 08:11:00,40.0,38.0,29.96,ENE,72,1.0,-999.0,93,-99.99,,,-99.99,,2013-02-27 13:11:00,
2013-02-27 08:22:00,40.0,38.0,29.96,ENE,72,1.0,-999.0,93,-99.99,,,-99.99,,2013-02-27 13:22:00,
2013-02-27 08:32:00,41.0,39.0,29.95,East,92,1.0,-999.0,94,-99.99,,,-99.99,,2013-02-27 13:32:00,
2013-02-27 08:42:00,41.0,39.0,29.95,East,92,1.0,-999.0,94,-99.99,,,-99.99,,2013-02-27 13:42:00,
2013-02-27 08:52:00,41.0,39.0,29.94,ESE,109,4.0,-999.0,94,-99.99,,,-99.99,,2013-02-27 13:52:00,
2013-02-27 09:02:00,41.0,39.0,29.93,East,98,2.0,-999.0,94,-99.99,,,-99.99,,2013-02-27 14:02:00,
2013-02-27 09:12:00,41.0,39.0,29.93,East,98,2.0,-999.0,94,-99.99,,,-99.99,,2013-02-27 14:12:00,
2013-02-27 09:22:00,41.0,39.0,29.93,SE,127,3.0,-999.0,94,-99.99,,,-99.99,,2013-02-27 14:22:00,
2013-02-27 09:32:00,41.0,39.0,29.92,East,94,6.0,-999.0,94,-99.99,,,-99.99,,2013-02-27 14:32:00,
2013-02-27 09:42:00,41.0,39.0,29.92,East,94,6.0,-999.0,94,-99.99,,,-99.99,,2013-02-27 14:42:00,
2013-02-27 09:52:00,41.0,39.0,29.91,East,79,0.0,-999.0,94,-99.99,,,-99.99,,2013-02-27 14:52:00,
2013-02-27 10:02:00,41.0,39.0,29.91,NNE,28,0.0,-999.0,94,-99.99,,,-99.99,,2013-02-27 15:02:00,
2013-02-27 10:12:00,41.0,39.0,29.91,NNE,28,0.0,-999.0,94,-99.99,,,-99.99,,2013-02-27 15:12:00,
2013-02-27 10:22:00,41.0,39.0,29.90,ESE,114,1.0,-999.0,94,-99.99,,,-99.99,,2013-02-27 15:22:00,
2013-02-27 10:32:00,41.0,39.0,29.89,SSE,159,2.0,-999.0,94,-99.99,,,-99.99,,2013-02-27 15:32:00,
2013-02-27 10:42:00,41.0,39.0,29.89,SSE,159,2.0,-999.0,94,-99.99,,,-99.99,,2013-02-27 15:42:00,
2013-02-27 10:52:00,41.0,39.0,29.88,East,92,3.0,-999.0,94,-99.99,,,-99.99,,2013-02-27 15:52:00,
2013-02-27 11:02:00,41.0,39.0,29.88,ESE,114,3.0,-999.0,94,-99.99,,,-99.99,,2013-02-27 16:02:00,
2013-02-27 11:12:00,41.0,39.0,29.88,ESE,114,3.0,-999.0,94,-99.99,,,-99.99,,2013-02-27 16:12:00,
2013-02-27 11:22:00,41.0,39.0,29.87,North,355,5.0,-999.0,94,-99.99,,,-99.99,,2013-02-27 16:22:00,
2013-02-27 11:32:00,41.0,39.0,29.86,ESE,110,3.0,-999.0,94,-99.99,,,-99.99,,2013-02-27 16:32:00,
2013-02-27 11:42:00,41.0,39.0,29.86,ESE,110,3.0,-999.0,94,-99.99,,,-99.99,,2013-02-27 16:42:00,
2013-02-27 11:52:00,41.0,39.0,29.85,ESE,122,1.0,-999.0,94,-99.99,,,-99.99,,2013-02-27 16:52:00,
2013-02-27 12:02:00,41.0,40.0,29.84,East,98,2.0,-999.0,95,-99.99,,,-99.99,,2013-02-27 17:02:00,
2013-02-27 12:11:00,41.0,40.0,29.84,East,98,2.0,-999.0,95,-99.99,,,-99.99,,2013-02-27 17:11:00,
2013-02-27 12:21:00,41.0,39.0,29.83,SE,128,5.0,-999.0,94,-99.99,,,-99.99,,2013-02-27 17:21:00,
2013-02-27 12:32:00,41.0,39.0,29.81,SE,126,3.0,-999.0,94,-99.99,,,-99.99,,2013-02-27 17:32:00,
2013-02-27 12:42:00,41.0,39.0,29.81,SE,126,3.0,-999.0,94,-99.99,,,-99.99,,2013-02-27 17:42:00,
2013-02-27 12:52:00,41.0,39.0,29.81,SE,130,3.0,-999.0,94,-99.99,,,-99.99,,2013-02-27 17:52:00,
2013-02-27 13:02:00,40.0,38.0,29.80,ESE,113,1.0,-999.0,94,-99.99,,,-99.99,,2013-02-27 18:02:00,
2013-02-27 13:11:00,40.0,38.0,29.80,ESE,113,1.0,-999.0,94,-99.99,,,-99.99,,2013-02-27 18:11:00,
2013-02-27 13:22:00,40.0,38.0,29.79,ESE,107,1.0,-999.0,94,-99.99,,,-99.99,,2013-02-27 18:22:00,
2013-02-27 13:32:00,40.0,38.0,29.79,ESE,107,1.0,-999.0,94,-99.99,,,-99.99,,2013-02-27 18:32:00,
2013-02-27 13:42:00,40.0,38.0,29.79,ESE,107,1.0,-999.0,94,-99.99,,,-99.99,,2013-02-27 18:42:00,
2013-02-27 13:51:00,40.0,38.0,29.78,SSE,153,3.0,-999.0,94,-99.99,,,-99.99,,2013-02-27 18:51:00,
2013-02-27 14:01:00,40.0,38.0,29.78,WSW,243,5.0,-999.0,94,-99.99,,,-99.99,,2013-02-27 19:01:00,
2013-02-27 14:12:00,40.0,38.0,29.78,WSW,243,5.0,-999.0,94,-99.99,,,-99.99,,2013-02-27 19:12:00,
2013-02-27 14:21:00,39.0,37.0,29.78,ESE,119,4.0,-999.0,94,-99.99,,,-99.99,,2013-02-27 19:21:00,
2013-02-27 14:32:00,39.0,37.0,29.77,ENE,74,1.0,-999.0,94,-99.99,,,-99.99,,2013-02-27 19:32:00,
2013-02-27 14:42:00,39.0,37.0,29.77,ENE,74,1.0,-999.0,94,-99.99,,,-99.99,,2013-02-27 19:42:00,
2013-02-27 14:52:00,39.0,37.0,29.77,SE,130,5.0,-999.0,94,-99.99,,,-99.99,,2013-02-27 19:52:00,
2013-02-27 15:02:00,39.0,37.0,29.76,South,175,1.0,-999.0,94,-99.99,,,-99.99,,2013-02-27 20:02:00,
2013-02-27 15:12:00,39.0,37.0,29.76,South,175,1.0,-999.0,94,-99.99,,,-99.99,,2013-02-27 20:12:00,
2013-02-27 15:22:00,39.0,38.0,29.75,East,94,3.0,-999.0,95,-99.99,,,-99.99,,2013-02-27 20:22:00,
2013-02-27 15:32:00,38.0,37.0,29.75,NE,56,1.0,-999.0,95,-99.99,,,-99.99,,2013-02-27 20:32:00,
2013-02-27 15:42:00,38.0,37.0,29.75,NE,56,1.0,-999.0,95,-99.99,,,-99.99,,2013-02-27 20:42:00,
2013-02-27 15:52:00,38.0,37.0,29.74,WNW,284,2.0,-999.0,95,-99.99,,,-99.99,,2013-02-27 20:52:00,
2013-02-27 16:02:00,38.0,37.0,29.73,ENE,73,3.0,-999.0,95,-99.99,,,-99.99,,2013-02-27 21:02:00,
2013-02-27 16:11:00,38.0,37.0,29.73,ENE,73,3.0,-999.0,95,-99.99,,,-99.99,,2013-02-27 21:11:00,
2013-02-27 16:22:00,38.0,37.0,29.74,SSE,164,2.0,-999.0,95,-99.99,,,-99.99,,2013-02-27 21:22:00,
2013-02-27 16:32:00,38.0,37.0,29.72,ESE,117,2.0,-999.0,95,-99.99,,,-99.99,,2013-02-27 21:32:00,
2013-02-27 16:42:00,38.0,37.0,29.72,ESE,117,2.0,-999.0,95,-99.99,,,-99.99,,2013-02-27 21:42:00,
2013-02-27 16:52:00,38.0,37.0,29.72,NE,48,1.0,-999.0,95,-99.99,,,-99.99,,2013-02-27 21:52:00,
2013-02-27 17:02:00,38.0,37.0,29.71,NE,34,1.0,-999.0,95,-99.99,,,-99.99,,2013-02-27 22:02:00,
2013-02-27 17:11:00,38.0,37.0,29.71,NE,34,1.0,-999.0,95,-99.99,,,-99.99,,2013-02-27 22:11:00,
2013-02-27 17:21:00,38.0,37.0,29.71,NE,34,1.0,-999.0,95,-99.99,,,-99.99,,2013-02-27 22:21:00,
2013-02-27 17:32:00,38.0,37.0,29.70,NE,56,1.0,-999.0,95,-99.99,,,-99.99,,2013-02-27 22:32:00,
2013-02-27 17:42:00,38.0,37.0,29.70,NE,56,1.0,-999.0,95,-99.99,,,-99.99,,2013-02-27 22:42:00,
2013-02-27 17:52:00,39.0,38.0,29.70,ENE,74,3.0,-999.0,95,-99.99,,,-99.99,,2013-02-27 22:52:00,
2013-02-27 18:01:00,39.0,38.0,29.69,NE,47,5.0,-999.0,95,-99.99,,,-99.99,,2013-02-27 23:01:00,
2013-02-27 18:11:00,39.0,38.0,29.69,NE,47,5.0,-999.0,95,-99.99,,,-99.99,,2013-02-27 23:11:00,
2013-02-27 18:21:00,39.0,38.0,29.68,East,87,3.0,-999.0,95,-99.99,,,-99.99,,2013-02-27 23:21:00,
2013-02-27 18:32:00,39.0,38.0,29.68,North,355,4.0,-999.0,95,-99.99,,,-99.99,,2013-02-27 23:32:00,
2013-02-27 18:42:00,39.0,38.0,29.68,North,355,4.0,-999.0,95,-99.99,,,-99.99,,2013-02-27 23:42:00,
2013-02-27 18:52:00,39.0,38.0,29.68,NNE,23,2.0,-999.0,95,-99.99,,,-99.99,,2013-02-27 23:52:00,
2013-02-27 19:02:00,39.0,38.0,29.67,ENE,72,2.0,-999.0,95,-99.99,,,-99.99,,2013-02-28 00:02:00,
2013-02-27 19:12:00,39.0,38.0,29.67,ENE,72,2.0,-999.0,95,-99.99,,,-99.99,,2013-02-28 00:12:00,
2013-02-27 19:21:00,39.0,38.0,29.67,North,10,2.0,-999.0,95,-99.99,,,-99.99,,2013-02-28 00:21:00,
2013-02-27 19:32:00,39.0,38.0,29.65,ENE,61,1.0,-999.0,96,-99.99,,,-99.99,,2013-02-28 00:32:00,
2013-02-27 19:42:00,39.0,38.0,29.65,ENE,61,1.0,-999.0,96,-99.99,,,-99.99,,2013-02-28 00:42:00,
2013-02-27 19:52:00,40.0,39.0,29.64,NNE,28,1.0,-999.0,95,-99.99,,,-99.99,,2013-02-28 00:52:00,
2013-02-27 20:01:00,40.0,39.0,29.62,NE,44,1.0,-999.0,96,-99.99,,,-99.99,,2013-02-28 01:01:00,
2013-02-27 20:11:00,40.0,39.0,29.62,NE,44,1.0,-999.0,96,-99.99,,,-99.99,,2013-02-28 01:11:00,
2013-02-27 20:22:00,40.0,39.0,29.62,NE,44,1.0,-999.0,96,-99.99,,,-99.99,,2013-02-28 01:22:00,
2013-02-27 20:32:00,40.0,39.0,29.60,East,84,1.0,-999.0,96,-99.99,,,-99.99,,2013-02-28 01:32:00,
2013-02-27 20:42:00,40.0,39.0,29.60,East,84,1.0,-999.0,96,-99.99,,,-99.99,,2013-02-28 01:42:00,
2013-02-27 20:52:00,40.0,39.0,29.59,NNE,14,8.0,-999.0,96,-99.99,,,-99.99,,2013-02-28 01:52:00,
2013-02-27 21:01:00,41.0,40.0,29.59,NNE,19,2.0,-999.0,96,-99.99,,,-99.99,,2013-02-28 02:01:00,
2013-02-27 21:11:00,41.0,40.0,29.59,NNE,19,2.0,-999.0,96,-99.99,,,-99.99,,2013-02-28 02:11:00,
2013-02-27 21:22:00,41.0,40.0,29.58,NNE,21,2.0,-999.0,96,-99.99,,,-99.99,,2013-02-28 02:22:00,
2013-02-27 21:32:00,41.0,40.0,29.57,NNE,26,1.0,-999.0,96,-99.99,,,-99.99,,2013-02-28 02:32:00,
2013-02-27 21:41:00,41.0,40.0,29.57,NNE,26,1.0,-999.0,96,-99.99,,,-99.99,,2013-02-28 02:41:00,
2013-02-27 21:51:00,41.0,40.0,29.57,NNE,26,1.0,-999.0,96,-99.99,,,-99.99,,2013-02-28 02:51:00,
2013-02-27 22:01:00,41.0,40.0,29.56,NNE,33,1.0,-999.0,96,-99.99,,,-99.99,,2013-02-28 03:01:00,
2013-02-27 22:11:00,41.0,40.0,29.56,NNE,33,1.0,-999.0,96,-99.99,,,-99.99,,2013-02-28 03:11:00,
2013-02-27 22:21:00,41.0,40.0,29.55,North,360,2.0,-999.0,96,-99.99,,,-99.99,,2013-02-28 03:21:00,
2013-02-27 22:32:00,41.0,40.0,29.54,NNE,14,4.0,-999.0,96,-99.99,,,-99.99,,2013-02-28 03:32:00,
2013-02-27 22:42:00,41.0,40.0,29.54,NNE,14,4.0,-999.0,96,-99.99,,,-99.99,,2013-02-28 03:42:00,
2013-02-27 22:52:00,41.0,40.0,29.54,NNE,13,0.0,-999.0,96,-99.99,,,-99.99,,2013-02-28 03:52:00,
2013-02-27 23:02:00,41.0,40.0,29.53,NNE,22,2.0,-999.0,96,-99.99,,,-99.99,,2013-02-28 04:02:00,
2013-02-27 23:11:00,41.0,40.0,29.53,NNE,22,2.0,-999.0,96,-99.99,,,-99.99,,2013-02-28 04:11:00,
2013-02-27 23:22:00,41.0,40.0,29.53,NNE,26,3.0,-999.0,96,-99.99,,,-99.99,,2013-02-28 04:22:00,
2013-02-27 23:32:00,41.0,40.0,29.52,NNE,17,1.0,-999.0,96,-99.99,,,-99.99,,2013-02-28 04:32:00,
2013-02-27 23:42:00,41.0,40.0,29.52,NNE,17,1.0,-999.0,96,-99.99,,,-99.99,,2013-02-28 04:42:00,
2013-02-27 23:52:00,41.0,40.0,29.52,North,11,0.0,-999.0,96,-99.99,,,-99.99,,2013-02-28 04:52:00,